| time (UTC) | temp C | wind direction | speed KPH | gust KPH | rain 1hr cm | rain 24hr cm | rain mn cm | humidity % | barometer mb |
| 20260503224504 | 16 | 129 | 0.0 | 1.6 | 0.00 | 0.03 | 0.00 | 50 | 1015.2 |
| 20260503223004 | 16 | 157 | 0.0 | 9.7 | 0.00 | 0.03 | 0.00 | 47 | 1015.1 |
| 20260503221505 | 16 | 151 | 0.0 | 3.2 | 0.00 | 0.03 | 0.00 | 49 | 1015.2 |
| 20260503220026 | 16 | 116 | 0.0 | 4.8 | 0.00 | 0.03 | 0.00 | 48 | 1015.2 |
| 20260503214505 | 17 | 136 | 1.6 | 8.0 | 0.00 | 0.03 | 0.00 | 45 | 1015.1 |
| 20260503213005 | 17 | 100 | 1.6 | 6.4 | 0.00 | 0.03 | 0.00 | 47 | 1015.0 |
| 20260503211504 | 18 | 138 | 1.6 | 9.7 | 0.00 | 0.03 | 0.00 | 44 | 1014.9 |
| 20260503210005 | 18 | 107 | 0.0 | 3.2 | 0.00 | 0.03 | 0.00 | 43 | 1015.0 |
| 20260503204504 | 18 | 99 | 1.6 | 8.0 | 0.00 | 0.05 | 0.00 | 44 | 1014.9 |
| 20260503203004 | 18 | 133 | 1.6 | 8.0 | 0.00 | 0.05 | 0.00 | 44 | 1015.0 |
| 20260503201505 | 18 | 180 | 1.6 | 9.7 | 0.00 | 0.05 | 0.00 | 44 | 1015.1 |
| 20260503200005 | 19 | 130 | 0.0 | 6.4 | 0.00 | 0.08 | 0.00 | 46 | 1015.3 |
| 20260503194504 | 18 | 117 | 1.6 | 3.2 | 0.00 | 0.08 | 0.00 | 45 | 1015.5 |
| 20260503193004 | 18 | 154 | 1.6 | 8.0 | 0.00 | 0.10 | 0.00 | 45 | 1015.5 |
| 20260503191526 | 18 | 152 | 1.6 | 11.3 | 0.00 | 0.10 | 0.00 | 46 | 1015.9 |
| 20260503190025 | 18 | 149 | 1.6 | 9.7 | 0.00 | 0.10 | 0.00 | 44 | 1016.1 |
| 20260503184525 | 18 | 157 | 1.6 | 8.0 | 0.00 | 0.10 | 0.00 | 45 | 1016.1 |
| 20260503183025 | 18 | 177 | 1.6 | 12.9 | 0.00 | 0.10 | 0.00 | 45 | 1016.3 |
| 20260503181505 | 18 | 135 | 1.6 | 16.1 | 0.00 | 0.10 | 0.00 | 50 | 1016.4 |
| 20260503180005 | 17 | 134 | 3.2 | 12.9 | 0.00 | 0.10 | 0.00 | 47 | 1016.4 |
| 20260503174504 | 17 | 130 | 1.6 | 9.7 | 0.00 | 0.10 | 0.00 | 51 | 1016.4 |
| 20260503173004 | 16 | 133 | 1.6 | 8.0 | 0.00 | 0.13 | 0.00 | 49 | 1016.4 |
| 20260503171525 | 17 | 117 | 1.6 | 12.9 | 0.00 | 0.15 | 0.00 | 48 | 1016.6 |
| 20260503081504 | 6 | 0 | 0.0 | 0.0 | 0.00 | 0.48 | 0.00 | 96 | 1012.7 |
| 20260503071505 | 7 | 0 | 0.0 | 0.0 | 0.00 | 0.48 | 0.00 | 95 | 1012.1 |
| 20260503054505 | 8 | 0 | 0.0 | 0.0 | 0.00 | 0.48 | 0.00 | 95 | 1011.7 |
| 20260503053005 | 9 | 0 | 0.0 | 0.0 | 0.00 | 0.48 | 0.00 | 95 | 1011.5 |
| 20260503051527 | 9 | 0 | 0.0 | 0.0 | 0.00 | 0.48 | 0.00 | 95 | 1011.6 |
| 20260503050005 | 9 | 0 | 0.0 | 0.0 | 0.00 | 0.48 | 0.00 | 95 | 1011.8 |
| 20260503044506 | 9 | 0 | 0.0 | 0.0 | 0.00 | 0.48 | 0.00 | 95 | 1011.6 |
| 20260503043026 | 10 | 0 | 0.0 | 0.0 | 0.00 | 0.48 | 0.00 | 95 | 1011.6 |
| 20260503041505 | 10 | 0 | 0.0 | 0.0 | 0.00 | 0.48 | 0.00 | 95 | 1011.6 |
| 20260503040006 | 10 | 0 | 0.0 | 0.0 | 0.00 | 0.48 | 0.00 | 95 | 1011.6 |
| 20260503034526 | 10 | 0 | 0.0 | 0.0 | 0.00 | 0.48 | 0.48 | 95 | 1011.8 |
| 20260503033005 | 10 | 0 | 0.0 | 0.0 | 0.00 | 0.48 | 0.48 | 95 | 1011.5 |
| 20260503031505 | 10 | 0 | 0.0 | 0.0 | 0.00 | 0.48 | 0.48 | 95 | 1011.5 |
| 20260503030026 | 10 | 0 | 0.0 | 0.0 | 0.00 | 0.48 | 0.48 | 95 | 1011.5 |
| 20260503024505 | 10 | 0 | 0.0 | 0.0 | 0.03 | 0.48 | 0.48 | 95 | 1011.6 |
| 20260503023005 | 10 | 0 | 0.0 | 0.0 | 0.03 | 0.51 | 0.48 | 95 | 1011.4 |
| 20260503021506 | 10 | 0 | 0.0 | 0.0 | 0.03 | 0.51 | 0.48 | 95 | 1011.5 |
| 20260503020005 | 10 | 0 | 0.0 | 0.0 | 0.03 | 0.51 | 0.48 | 95 | 1011.6 |
| 20260503014505 | 10 | 0 | 0.0 | 0.0 | 0.00 | 0.48 | 0.46 | 95 | 1011.6 |
| 20260503013027 | 11 | 0 | 0.0 | 0.0 | 0.00 | 0.48 | 0.46 | 95 | 1011.6 |
| 20260503011505 | 11 | 0 | 0.0 | 0.0 | 0.00 | 0.48 | 0.46 | 95 | 1011.0 |
| 20260503010005 | 11 | 0 | 0.0 | 0.0 | 0.00 | 0.48 | 0.46 | 95 | 1011.0 |
| 20260503004504 | 11 | 0 | 0.0 | 0.0 | 0.00 | 0.48 | 0.46 | 95 | 1010.8 |
| 20260503003005 | 11 | 0 | 0.0 | 0.0 | 0.00 | 0.48 | 0.46 | 95 | 1010.6 |
| 20260503001526 | 11 | 0 | 0.0 | 0.0 | 0.00 | 0.48 | 0.46 | 94 | 1010.7 |
| 20260503000005 | 11 | 0 | 0.0 | 0.0 | 0.00 | 0.48 | 0.46 | 94 | 1010.7 |
| 20260502234526 | 11 | 0 | 0.0 | 0.0 | 0.00 | 0.48 | 0.46 | 94 | 1010.3 |
| 20260502233005 | 11 | 0 | 0.0 | 0.0 | 0.00 | 0.48 | 0.46 | 93 | 1010.1 |
| 20260502231505 | 11 | 0 | 0.0 | 0.0 | 0.00 | 0.48 | 0.46 | 93 | 1009.8 |
| 20260502230005 | 11 | 0 | 0.0 | 0.0 | 0.00 | 0.48 | 0.46 | 93 | 1009.9 |